Time,TemperatureF,DewpointF,PressureIn,WindDirection,WindDirectionDegrees,WindSpeedMPH,WindSpeedGustMPH,Humidity,HourlyPrecipIn,Conditions,Clouds,dailyrainin,SoftwareType,DateUTC
2013-08-31 00:00:00,78.5,74.3,29.73,NNE,12,0.0,3.0,87,0.00,,,0.00,Wunderground v.1.15,2013-08-31 05:00:00,
2013-08-31 00:05:00,78.5,74.3,29.73,North,355,0.0,3.0,87,0.00,,,0.00,Wunderground v.1.15,2013-08-31 05:05:00,
2013-08-31 00:15:00,78.3,73.8,29.73,NNE,28,0.0,3.0,86,0.00,,,0.00,Wunderground v.1.15,2013-08-31 05:15:00,
2013-08-31 00:20:00,78.2,73.7,29.73,North,5,0.0,0.0,86,0.00,,,0.00,Wunderground v.1.15,2013-08-31 05:20:00,
2013-08-31 00:25:00,78.2,73.7,29.75,NNE,32,0.0,2.0,86,0.00,,,0.00,Wunderground v.1.15,2013-08-31 05:25:00,
2013-08-31 00:30:00,78.2,73.7,29.74,ENE,59,1.0,1.0,86,0.00,,,0.00,Wunderground v.1.15,2013-08-31 05:30:00,
2013-08-31 00:40:00,77.2,73.7,29.74,North,355,0.0,0.0,89,0.24,,,0.02,Wunderground v.1.15,2013-08-31 05:40:00,
2013-08-31 00:45:00,76.9,73.7,29.74,WNW,284,0.0,0.0,90,0.47,,,0.04,Wunderground v.1.15,2013-08-31 05:45:00,
2013-08-31 00:55:00,76.4,73.9,29.74,East,95,0.0,0.0,92,0.07,,,0.06,Wunderground v.1.15,2013-08-31 05:55:00,
2013-08-31 01:00:00,76.2,73.7,29.73,NNE,19,0.0,0.0,92,0.05,,,0.06,Wunderground v.1.15,2013-08-31 06:00:00,
2013-08-31 01:05:00,76.1,73.9,29.73,NNE,18,0.0,0.0,93,0.00,,,0.06,Wunderground v.1.15,2013-08-31 06:05:00,
2013-08-31 01:10:00,75.9,73.7,29.72,NNE,18,0.0,0.0,93,0.00,,,0.06,Wunderground v.1.15,2013-08-31 06:10:00,
2013-08-31 01:15:00,75.8,73.9,29.72,NNE,18,0.0,0.0,94,0.00,,,0.06,Wunderground v.1.15,2013-08-31 06:15:00,
2013-08-31 01:20:00,75.7,73.8,29.72,North,360,0.0,0.0,94,0.00,,,0.06,Wunderground v.1.15,2013-08-31 06:20:00,
2013-08-31 01:30:00,75.3,73.5,29.72,North,350,0.0,0.0,94,0.00,,,0.06,Wunderground v.1.15,2013-08-31 06:30:00,
2013-08-31 01:35:00,75.2,73.4,29.72,North,355,0.0,0.0,94,0.00,,,0.06,Wunderground v.1.15,2013-08-31 06:35:00,
2013-08-31 01:40:00,75.0,73.2,29.71,North,9,0.0,0.0,94,0.00,,,0.06,Wunderground v.1.15,2013-08-31 06:40:00,
2013-08-31 01:45:00,74.9,73.1,29.71,North,9,0.0,0.0,94,0.00,,,0.06,Wunderground v.1.15,2013-08-31 06:45:00,
2013-08-31 01:50:00,74.8,73.0,29.71,North,10,0.0,0.0,94,0.00,,,0.06,Wunderground v.1.15,2013-08-31 06:50:00,
2013-08-31 01:55:00,74.7,72.9,29.71,NNW,334,0.0,0.0,94,0.00,,,0.06,Wunderground v.1.15,2013-08-31 06:55:00,
2013-08-31 02:05:00,74.5,73.0,29.71,North,360,0.0,0.0,95,0.00,,,0.06,Wunderground v.1.15,2013-08-31 07:05:00,
2013-08-31 02:10:00,74.4,72.9,29.71,North,10,0.0,0.0,95,0.00,,,0.06,Wunderground v.1.15,2013-08-31 07:10:00,
2013-08-31 02:15:00,74.3,72.8,29.71,North,10,0.0,0.0,95,0.00,,,0.06,Wunderground v.1.15,2013-08-31 07:15:00,
2013-08-31 02:20:00,74.2,72.7,29.71,NNE,29,0.0,0.0,95,0.00,,,0.06,Wunderground v.1.15,2013-08-31 07:20:00,
2013-08-31 02:25:00,74.1,72.6,29.71,NNE,26,0.0,0.0,95,0.00,,,0.06,Wunderground v.1.15,2013-08-31 07:25:00,
2013-08-31 02:35:00,73.9,72.4,29.71,NNE,26,0.0,0.0,95,0.00,,,0.06,Wunderground v.1.15,2013-08-31 07:35:00,
2013-08-31 02:40:00,73.8,72.3,29.71,NNE,26,0.0,0.0,95,0.00,,,0.06,Wunderground v.1.15,2013-08-31 07:40:00,
2013-08-31 02:45:00,73.7,72.2,29.71,NNE,26,0.0,0.0,95,0.00,,,0.06,Wunderground v.1.15,2013-08-31 07:45:00,
2013-08-31 02:50:00,73.6,72.1,29.70,North,360,0.0,0.0,95,0.00,,,0.06,Wunderground v.1.15,2013-08-31 07:50:00,
2013-08-31 02:55:00,73.5,72.0,29.70,North,360,0.0,0.0,95,0.00,,,0.06,Wunderground v.1.15,2013-08-31 07:55:00,
2013-08-31 03:00:00,73.4,71.9,29.70,North,360,0.0,0.0,95,0.00,,,0.06,Wunderground v.1.15,2013-08-31 08:00:00,
2013-08-31 03:05:00,73.4,71.9,29.70,North,360,0.0,0.0,95,0.00,,,0.06,Wunderground v.1.15,2013-08-31 08:05:00,
2013-08-31 03:15:00,73.2,72.0,29.71,North,360,0.0,0.0,96,0.00,,,0.06,Wunderground v.1.15,2013-08-31 08:15:00,
2013-08-31 03:25:00,73.0,71.8,29.71,North,360,0.0,0.0,96,0.00,,,0.06,Wunderground v.1.15,2013-08-31 08:25:00,
2013-08-31 03:30:00,73.0,71.8,29.71,North,5,0.0,0.0,96,0.00,,,0.06,Wunderground v.1.15,2013-08-31 08:30:00,
2013-08-31 03:35:00,73.0,71.8,29.71,NNW,348,0.0,0.0,96,0.00,,,0.07,Wunderground v.1.15,2013-08-31 08:35:00,
2013-08-31 03:40:00,72.9,71.7,29.71,NNW,348,0.0,0.0,96,0.00,,,0.07,Wunderground v.1.15,2013-08-31 08:40:00,
2013-08-31 03:45:00,72.8,71.6,29.72,NNW,338,0.0,0.0,96,0.00,,,0.07,Wunderground v.1.15,2013-08-31 08:45:00,
2013-08-31 03:50:00,72.8,71.6,29.72,NNW,340,0.0,0.0,96,0.00,,,0.07,Wunderground v.1.15,2013-08-31 08:50:00,
2013-08-31 03:55:00,72.7,71.5,29.72,NNW,340,0.0,0.0,96,0.00,,,0.07,Wunderground v.1.15,2013-08-31 08:55:00,
2013-08-31 04:00:00,72.7,71.5,29.72,NNW,340,0.0,0.0,96,0.00,,,0.07,Wunderground v.1.15,2013-08-31 09:00:00,
2013-08-31 04:10:00,72.5,71.3,29.72,NNW,340,0.0,0.0,96,0.00,,,0.07,Wunderground v.1.15,2013-08-31 09:10:00,
2013-08-31 04:15:00,72.4,71.2,29.72,NNW,340,0.0,0.0,96,0.00,,,0.07,Wunderground v.1.15,2013-08-31 09:15:00,
2013-08-31 04:20:00,72.3,71.1,29.72,NNW,340,0.0,0.0,96,0.00,,,0.07,Wunderground v.1.15,2013-08-31 09:20:00,
2013-08-31 04:30:00,72.1,70.9,29.72,NNW,340,0.0,0.0,96,0.00,,,0.07,Wunderground v.1.15,2013-08-31 09:30:00,
2013-08-31 04:40:00,72.0,70.8,29.72,NNW,340,0.0,0.0,96,0.00,,,0.07,Wunderground v.1.15,2013-08-31 09:40:00,
2013-08-31 04:45:00,71.9,70.7,29.72,NNW,340,0.0,0.0,96,0.00,,,0.07,Wunderground v.1.15,2013-08-31 09:45:00,
2013-08-31 04:50:00,71.8,70.6,29.73,NNW,340,0.0,0.0,96,0.00,,,0.07,Wunderground v.1.15,2013-08-31 09:50:00,
2013-08-31 04:55:00,71.7,70.5,29.73,NNW,340,0.0,0.0,96,0.00,,,0.07,Wunderground v.1.15,2013-08-31 09:55:00,
2013-08-31 05:00:00,71.7,70.5,29.73,NNW,340,0.0,0.0,96,0.00,,,0.07,Wunderground v.1.15,2013-08-31 10:00:00,
2013-08-31 05:05:00,71.6,70.4,29.73,NNW,340,0.0,0.0,96,0.00,,,0.07,Wunderground v.1.15,2013-08-31 10:05:00,
2013-08-31 05:10:00,71.5,70.3,29.73,NNW,340,0.0,0.0,96,0.00,,,0.07,Wunderground v.1.15,2013-08-31 10:10:00,
2013-08-31 05:20:00,71.4,70.2,29.73,NNW,340,0.0,0.0,96,0.00,,,0.07,Wunderground v.1.15,2013-08-31 10:20:00,
2013-08-31 05:25:00,71.4,70.2,29.73,NNW,340,0.0,0.0,96,0.00,,,0.07,Wunderground v.1.15,2013-08-31 10:25:00,
2013-08-31 05:30:00,71.3,70.1,29.73,NNW,340,0.0,0.0,96,0.00,,,0.07,Wunderground v.1.15,2013-08-31 10:30:00,
2013-08-31 05:35:00,71.2,70.3,29.73,NNW,340,0.0,0.0,97,0.00,,,0.07,Wunderground v.1.15,2013-08-31 10:35:00,
2013-08-31 05:45:00,71.1,70.2,29.73,NNW,340,0.0,0.0,97,0.00,,,0.07,Wunderground v.1.15,2013-08-31 10:45:00,
2013-08-31 05:50:00,71.0,69.8,29.73,NNW,340,0.0,1.0,96,0.00,,,0.07,Wunderground v.1.15,2013-08-31 10:50:00,
2013-08-31 05:55:00,70.9,69.7,29.73,West,268,0.0,1.0,96,0.00,,,0.07,Wunderground v.1.15,2013-08-31 10:55:00,
2013-08-31 06:00:00,70.8,69.6,29.73,WNW,293,0.0,0.0,96,0.00,,,0.07,Wunderground v.1.15,2013-08-31 11:00:00,
2013-08-31 06:10:00,70.6,69.7,29.73,WNW,292,0.0,0.0,97,0.00,,,0.07,Wunderground v.1.15,2013-08-31 11:10:00,
2013-08-31 06:15:00,70.5,69.6,29.73,WNW,293,0.0,0.0,97,0.00,,,0.07,Wunderground v.1.15,2013-08-31 11:15:00,
2013-08-31 06:20:00,70.3,69.1,29.73,WNW,293,0.0,0.0,96,0.00,,,0.07,Wunderground v.1.15,2013-08-31 11:20:00,
2013-08-31 06:25:00,70.2,69.0,29.74,NNE,19,0.0,0.0,96,0.00,,,0.07,Wunderground v.1.15,2013-08-31 11:25:00,
2013-08-31 06:30:00,70.1,69.2,29.74,NNE,19,0.0,0.0,97,0.00,,,0.07,Wunderground v.1.15,2013-08-31 11:30:00,
2013-08-31 06:35:00,70.0,69.1,29.75,North,360,0.0,0.0,97,0.00,,,0.07,Wunderground v.1.15,2013-08-31 11:35:00,
2013-08-31 06:40:00,69.9,69.0,29.75,North,355,0.0,0.0,97,0.00,,,0.07,Wunderground v.1.15,2013-08-31 11:40:00,
2013-08-31 06:50:00,69.8,68.9,29.75,NNW,335,0.0,0.0,97,0.00,,,0.07,Wunderground v.1.15,2013-08-31 11:50:00,
2013-08-31 06:55:00,69.8,68.9,29.75,NW,315,0.0,0.0,97,0.00,,,0.07,Wunderground v.1.15,2013-08-31 11:55:00,
2013-08-31 07:00:00,69.7,68.8,29.75,NW,315,0.0,0.0,97,0.00,,,0.07,Wunderground v.1.15,2013-08-31 12:00:00,
2013-08-31 07:05:00,69.7,68.8,29.75,NW,315,0.0,0.0,97,0.00,,,0.07,Wunderground v.1.15,2013-08-31 12:05:00,
2013-08-31 07:10:00,69.7,68.8,29.75,NW,316,0.0,0.0,97,0.00,,,0.07,Wunderground v.1.15,2013-08-31 12:10:00,
2013-08-31 07:15:00,69.7,68.8,29.75,NW,315,0.0,0.0,97,0.00,,,0.07,Wunderground v.1.15,2013-08-31 12:15:00,
2013-08-31 07:20:00,69.7,68.8,29.76,NW,323,0.0,0.0,97,0.00,,,0.07,Wunderground v.1.15,2013-08-31 12:20:00,
2013-08-31 07:25:00,69.7,68.8,29.76,NNW,329,0.0,0.0,97,0.00,,,0.07,Wunderground v.1.15,2013-08-31 12:25:00,
2013-08-31 07:35:00,69.9,69.0,29.76,North,360,0.0,0.0,97,0.00,,,0.07,Wunderground v.1.15,2013-08-31 12:35:00,
2013-08-31 07:40:00,70.0,69.1,29.75,North,5,0.0,0.0,97,0.00,,,0.07,Wunderground v.1.15,2013-08-31 12:40:00,
2013-08-31 07:45:00,70.1,69.2,29.76,North,11,0.0,0.0,97,0.00,,,0.07,Wunderground v.1.15,2013-08-31 12:45:00,
2013-08-31 07:50:00,70.2,69.0,29.76,North,349,0.0,0.0,96,0.00,,,0.07,Wunderground v.1.15,2013-08-31 12:50:00,
2013-08-31 07:55:00,70.4,69.2,29.76,North,355,0.0,0.0,96,0.00,,,0.07,Wunderground v.1.15,2013-08-31 12:55:00,
2013-08-31 08:00:00,70.4,69.2,29.76,North,360,0.0,0.0,96,0.00,,,0.07,Wunderground v.1.15,2013-08-31 13:00:00,
2013-08-31 08:05:00,70.6,69.4,29.76,North,360,0.0,0.0,96,0.00,,,0.07,Wunderground v.1.15,2013-08-31 13:05:00,
2013-08-31 08:10:00,70.8,69.6,29.76,NNE,15,0.0,3.0,96,0.00,,,0.07,Wunderground v.1.15,2013-08-31 13:10:00,
2013-08-31 08:20:00,71.3,69.8,29.76,NNE,23,0.0,0.0,95,0.00,,,0.07,Wunderground v.1.15,2013-08-31 13:20:00,
2013-08-31 08:25:00,71.7,70.2,29.76,NNE,14,0.0,0.0,95,0.00,,,0.07,Wunderground v.1.15,2013-08-31 13:25:00,
2013-08-31 08:30:00,71.9,70.1,29.76,NNW,345,0.0,0.0,94,0.00,,,0.07,Wunderground v.1.15,2013-08-31 13:30:00,
2013-08-31 08:35:00,72.4,70.6,29.76,NNW,345,0.0,0.0,94,0.00,,,0.07,Wunderground v.1.15,2013-08-31 13:35:00,
2013-08-31 08:40:00,73.1,71.0,29.76,West,271,0.0,0.0,93,0.00,,,0.07,Wunderground v.1.15,2013-08-31 13:40:00,
2013-08-31 08:45:00,73.5,70.7,29.76,North,11,0.0,0.0,91,0.00,,,0.07,Wunderground v.1.15,2013-08-31 13:45:00,
2013-08-31 08:50:00,73.8,70.7,29.76,NNE,26,0.0,0.0,90,0.00,,,0.07,Wunderground v.1.15,2013-08-31 13:50:00,
2013-08-31 08:55:00,73.9,70.5,29.76,North,360,0.0,0.0,89,0.00,,,0.07,Wunderground v.1.15,2013-08-31 13:55:00,
2013-08-31 09:00:00,74.1,70.6,29.76,NW,320,0.0,0.0,89,0.00,,,0.07,Wunderground v.1.15,2013-08-31 14:00:00,
2013-08-31 09:10:00,75.0,71.5,29.77,NNW,348,0.0,0.0,89,0.00,,,0.07,Wunderground v.1.15,2013-08-31 14:10:00,
2013-08-31 09:15:00,75.5,71.7,29.77,North,350,0.0,0.0,88,0.00,,,0.07,Wunderground v.1.15,2013-08-31 14:15:00,
2013-08-31 09:25:00,75.7,71.6,29.77,NNE,24,0.0,0.0,87,0.00,,,0.07,Wunderground v.1.15,2013-08-31 14:25:00,
2013-08-31 09:30:00,75.4,71.3,29.76,NNW,341,0.0,0.0,87,0.00,,,0.07,Wunderground v.1.15,2013-08-31 14:30:00,
2013-08-31 09:35:00,75.2,71.4,29.75,NNW,342,0.0,0.0,88,0.00,,,0.07,Wunderground v.1.15,2013-08-31 14:35:00,
2013-08-31 09:40:00,75.1,71.3,29.75,NNW,343,0.0,0.0,88,0.00,,,0.07,Wunderground v.1.15,2013-08-31 14:40:00,
2013-08-31 09:45:00,75.5,72.0,29.75,NNW,342,0.0,0.0,89,0.00,,,0.07,Wunderground v.1.15,2013-08-31 14:45:00,
2013-08-31 09:50:00,76.2,72.0,29.76,ESE,111,0.0,0.0,87,0.00,,,0.07,Wunderground v.1.15,2013-08-31 14:50:00,
2013-08-31 09:55:00,76.7,72.2,29.76,NNW,332,0.0,0.0,86,0.00,,,0.07,Wunderground v.1.15,2013-08-31 14:55:00,
2013-08-31 10:00:00,77.3,72.4,29.75,East,86,0.0,0.0,85,0.00,,,0.07,Wunderground v.1.15,2013-08-31 15:00:00,
2013-08-31 10:05:00,77.9,72.7,29.75,South,169,0.0,0.0,84,0.00,,,0.07,Wunderground v.1.15,2013-08-31 15:05:00,
2013-08-31 10:10:00,78.2,72.6,29.75,East,97,0.0,0.0,83,0.00,,,0.07,Wunderground v.1.15,2013-08-31 15:10:00,
2013-08-31 10:15:00,78.2,73.0,29.75,East,87,0.0,0.0,84,0.00,,,0.07,Wunderground v.1.15,2013-08-31 15:15:00,
2013-08-31 10:25:00,79.5,73.5,29.76,ESE,102,0.0,0.0,82,0.00,,,0.07,Wunderground v.1.15,2013-08-31 15:25:00,
2013-08-31 10:30:00,80.4,73.7,29.76,ENE,58,0.0,0.0,80,0.00,,,0.07,Wunderground v.1.15,2013-08-31 15:30:00,
2013-08-31 10:35:00,80.8,73.7,29.76,NW,305,0.0,0.0,79,0.00,,,0.07,Wunderground v.1.15,2013-08-31 15:35:00,
2013-08-31 10:40:00,80.9,73.8,29.76,North,360,0.0,0.0,79,0.00,,,0.07,Wunderground v.1.15,2013-08-31 15:40:00,
2013-08-31 10:45:00,81.4,73.5,29.76,NNW,333,0.0,0.0,77,0.00,,,0.07,Wunderground v.1.15,2013-08-31 15:45:00,
2013-08-31 10:50:00,81.6,73.7,29.76,NNE,13,0.0,3.0,77,0.00,,,0.07,Wunderground v.1.15,2013-08-31 15:50:00,
2013-08-31 10:55:00,81.4,73.5,29.76,NNE,30,1.0,3.0,77,0.00,,,0.07,Wunderground v.1.15,2013-08-31 15:55:00,
2013-08-31 11:00:00,81.5,73.2,29.76,NNW,342,1.0,1.0,76,0.00,,,0.07,Wunderground v.1.15,2013-08-31 16:00:00,
2013-08-31 11:05:00,81.8,73.5,29.76,ESE,117,1.0,1.0,76,0.00,,,0.07,Wunderground v.1.15,2013-08-31 16:05:00,
2013-08-31 11:10:00,82.5,74.2,29.76,ESE,111,0.0,0.0,76,0.00,,,0.07,Wunderground v.1.15,2013-08-31 16:10:00,
2013-08-31 11:15:00,82.7,74.0,29.76,East,92,0.0,0.0,75,0.00,,,0.07,Wunderground v.1.15,2013-08-31 16:15:00,
2013-08-31 11:25:00,83.1,73.9,29.76,NE,48,0.0,0.0,74,0.00,,,0.07,Wunderground v.1.15,2013-08-31 16:25:00,
2013-08-31 11:30:00,82.6,73.1,29.76,North,360,0.0,0.0,73,0.00,,,0.07,Wunderground v.1.15,2013-08-31 16:30:00,
2013-08-31 11:35:00,82.6,73.1,29.76,East,90,0.0,0.0,73,0.00,,,0.07,Wunderground v.1.15,2013-08-31 16:35:00,
2013-08-31 11:45:00,81.9,73.2,29.75,ESE,110,0.0,0.0,75,0.00,,,0.07,Wunderground v.1.15,2013-08-31 16:45:00,
2013-08-31 11:50:00,82.3,73.6,29.75,NNW,338,0.0,0.0,75,0.00,,,0.07,Wunderground v.1.15,2013-08-31 16:50:00,
2013-08-31 11:55:00,82.7,73.6,29.75,NNW,341,0.0,0.0,74,0.00,,,0.07,Wunderground v.1.15,2013-08-31 16:55:00,
2013-08-31 12:00:00,83.6,74.4,29.75,NNW,338,0.0,0.0,74,0.00,,,0.07,Wunderground v.1.15,2013-08-31 17:00:00,
2013-08-31 12:05:00,84.0,74.0,29.75,East,98,0.0,0.0,72,0.00,,,0.07,Wunderground v.1.15,2013-08-31 17:05:00,
2013-08-31 12:10:00,83.9,73.9,29.75,North,355,0.0,0.0,72,0.00,,,0.07,Wunderground v.1.15,2013-08-31 17:10:00,
2013-08-31 12:15:00,83.7,73.7,29.75,North,355,0.0,0.0,72,0.00,,,0.07,Wunderground v.1.15,2013-08-31 17:15:00,
2013-08-31 12:25:00,83.3,73.3,29.75,ENE,69,1.0,1.0,72,0.00,,,0.07,Wunderground v.1.15,2013-08-31 17:25:00,
2013-08-31 12:30:00,84.0,74.0,29.75,ENE,76,0.0,0.0,72,0.00,,,0.07,Wunderground v.1.15,2013-08-31 17:30:00,
2013-08-31 12:35:00,85.0,74.5,29.75,ENE,76,0.0,0.0,71,0.00,,,0.07,Wunderground v.1.15,2013-08-31 17:35:00,
2013-08-31 12:40:00,85.0,73.3,29.75,East,93,0.0,0.0,68,0.00,,,0.07,Wunderground v.1.15,2013-08-31 17:40:00,
2013-08-31 12:45:00,83.6,73.6,29.75,East,95,0.0,0.0,72,0.00,,,0.07,Wunderground v.1.15,2013-08-31 17:45:00,
2013-08-31 12:50:00,84.1,73.7,29.75,North,350,0.0,0.0,71,0.00,,,0.07,Wunderground v.1.15,2013-08-31 17:50:00,
2013-08-31 12:55:00,84.6,73.3,29.75,SE,128,0.0,0.0,69,0.00,,,0.07,Wunderground v.1.15,2013-08-31 17:55:00,
2013-08-31 13:05:00,83.9,72.6,29.75,ESE,111,1.0,1.0,69,0.00,,,0.07,Wunderground v.1.15,2013-08-31 18:05:00,
2013-08-31 13:10:00,84.0,72.7,29.75,ESE,113,1.0,1.0,69,0.00,,,0.07,Wunderground v.1.15,2013-08-31 18:10:00,
2013-08-31 13:15:00,83.8,72.1,29.75,East,98,0.0,1.0,68,0.00,,,0.07,Wunderground v.1.15,2013-08-31 18:15:00,
2013-08-31 13:20:00,84.3,73.4,29.75,East,83,0.0,0.0,70,0.00,,,0.07,Wunderground v.1.15,2013-08-31 18:20:00,
2013-08-31 13:25:00,85.6,73.8,29.75,East,101,0.0,0.0,68,0.00,,,0.07,Wunderground v.1.15,2013-08-31 18:25:00,
2013-08-31 13:30:00,86.5,72.9,29.75,NNW,332,0.0,0.0,64,0.00,,,0.07,Wunderground v.1.15,2013-08-31 18:30:00,
2013-08-31 13:35:00,86.2,73.0,29.75,ENE,57,0.0,0.0,65,0.00,,,0.07,Wunderground v.1.15,2013-08-31 18:35:00,
2013-08-31 13:40:00,85.9,73.2,29.75,ENE,78,0.0,0.0,66,0.00,,,0.07,Wunderground v.1.15,2013-08-31 18:40:00,
2013-08-31 13:50:00,85.9,73.2,29.75,East,96,1.0,1.0,66,0.00,,,0.07,Wunderground v.1.15,2013-08-31 18:50:00,
2013-08-31 13:55:00,86.4,73.2,29.75,NW,318,0.0,1.0,65,0.00,,,0.07,Wunderground v.1.15,2013-08-31 18:55:00,
2013-08-31 14:00:00,86.3,72.7,29.75,NW,317,0.0,0.0,64,0.00,,,0.07,Wunderground v.1.15,2013-08-31 19:00:00,
2013-08-31 14:05:00,85.6,72.5,29.75,South,190,0.0,0.0,65,0.00,,,0.07,Wunderground v.1.15,2013-08-31 19:05:00,
2013-08-31 14:10:00,85.1,72.9,29.75,SSE,149,0.0,0.0,67,0.00,,,0.07,Wunderground v.1.15,2013-08-31 19:10:00,
2013-08-31 14:15:00,86.2,73.5,29.75,ENE,74,0.0,0.0,66,0.00,,,0.07,Wunderground v.1.15,2013-08-31 19:15:00,
2013-08-31 14:20:00,87.4,74.2,29.75,North,10,0.0,0.0,65,0.00,,,0.07,Wunderground v.1.15,2013-08-31 19:20:00,
2013-08-31 14:25:00,87.9,73.7,29.75,NNW,341,0.0,0.0,63,0.00,,,0.07,Wunderground v.1.15,2013-08-31 19:25:00,
2013-08-31 14:35:00,87.2,73.1,29.75,East,88,0.0,0.0,63,0.00,,,0.07,Wunderground v.1.15,2013-08-31 19:35:00,
2013-08-31 14:40:00,86.8,72.7,29.75,SE,144,0.0,0.0,63,0.00,,,0.07,Wunderground v.1.15,2013-08-31 19:40:00,
2013-08-31 14:45:00,86.0,72.4,29.74,East,96,0.0,0.0,64,0.00,,,0.07,Wunderground v.1.15,2013-08-31 19:45:00,
2013-08-31 14:50:00,85.8,72.7,29.74,ENE,63,0.0,0.0,65,0.00,,,0.07,Wunderground v.1.15,2013-08-31 19:50:00,
2013-08-31 14:55:00,85.8,72.2,29.74,ENE,63,0.0,0.0,64,0.00,,,0.07,Wunderground v.1.15,2013-08-31 19:55:00,
2013-08-31 15:00:00,85.6,72.0,29.74,SE,129,0.0,0.0,64,0.00,,,0.07,Wunderground v.1.15,2013-08-31 20:00:00,
2013-08-31 15:05:00,85.7,72.1,29.74,SE,131,0.0,0.0,64,0.00,,,0.07,Wunderground v.1.15,2013-08-31 20:05:00,
2013-08-31 15:10:00,86.5,72.4,29.74,SW,215,0.0,0.0,63,0.00,,,0.07,Wunderground v.1.15,2013-08-31 20:10:00,
2013-08-31 15:20:00,87.0,72.4,29.73,NNW,331,0.0,0.0,62,0.00,,,0.07,Wunderground v.1.15,2013-08-31 20:20:00,
2013-08-31 15:30:00,87.8,73.2,29.73,NW,321,0.0,0.0,62,0.00,,,0.07,Wunderground v.1.15,2013-08-31 20:30:00,
2013-08-31 15:35:00,88.4,73.2,29.73,NNW,329,0.0,0.0,61,0.00,,,0.07,Wunderground v.1.15,2013-08-31 20:35:00,
2013-08-31 15:40:00,88.4,72.2,29.73,ESE,105,0.0,0.0,59,0.00,,,0.07,Wunderground v.1.15,2013-08-31 20:40:00,
2013-08-31 15:45:00,88.1,73.0,29.73,East,88,0.0,7.0,61,0.00,,,0.07,Wunderground v.1.15,2013-08-31 20:45:00,
2013-08-31 15:50:00,87.5,72.4,29.73,East,98,1.0,1.0,61,0.00,,,0.07,Wunderground v.1.15,2013-08-31 20:50:00,
2013-08-31 15:55:00,87.4,72.3,29.73,East,91,1.0,1.0,61,0.00,,,0.07,Wunderground v.1.15,2013-08-31 20:55:00,
2013-08-31 16:00:00,87.8,72.7,29.73,East,92,0.0,0.0,61,0.00,,,0.07,Wunderground v.1.15,2013-08-31 21:00:00,
2013-08-31 16:05:00,88.2,73.0,29.73,East,94,0.0,0.0,61,0.00,,,0.07,Wunderground v.1.15,2013-08-31 21:05:00,
2013-08-31 16:10:00,88.0,72.4,29.73,East,98,0.0,1.0,60,0.00,,,0.07,Wunderground v.1.15,2013-08-31 21:10:00,
2013-08-31 16:15:00,86.9,71.8,29.73,NE,42,1.0,1.0,61,0.00,,,0.07,Wunderground v.1.15,2013-08-31 21:15:00,
2013-08-31 16:25:00,87.2,72.1,29.72,East,92,0.0,1.0,61,0.00,,,0.07,Wunderground v.1.15,2013-08-31 21:25:00,
2013-08-31 16:35:00,87.7,72.6,29.73,North,355,0.0,0.0,61,0.00,,,0.07,Wunderground v.1.15,2013-08-31 21:35:00,
2013-08-31 16:40:00,88.1,72.0,29.72,NNW,347,0.0,0.0,59,0.00,,,0.07,Wunderground v.1.15,2013-08-31 21:40:00,
2013-08-31 16:45:00,88.1,72.0,29.72,East,97,0.0,0.0,59,0.00,,,0.07,Wunderground v.1.15,2013-08-31 21:45:00,
2013-08-31 16:55:00,87.8,72.2,29.72,ESE,111,0.0,0.0,60,0.00,,,0.07,Wunderground v.1.15,2013-08-31 21:55:00,
2013-08-31 17:00:00,88.2,72.1,29.72,ENE,58,0.0,0.0,59,0.00,,,0.07,Wunderground v.1.15,2013-08-31 22:00:00,
2013-08-31 17:05:00,87.9,71.8,29.72,East,96,0.0,0.0,59,0.00,,,0.07,Wunderground v.1.15,2013-08-31 22:05:00,
2013-08-31 17:10:00,87.3,71.2,29.72,East,95,0.0,3.0,59,0.00,,,0.07,Wunderground v.1.15,2013-08-31 22:10:00,
2013-08-31 17:15:00,86.9,71.8,29.72,East,90,0.0,3.0,61,0.00,,,0.07,Wunderground v.1.15,2013-08-31 22:15:00,
2013-08-31 17:25:00,87.4,71.3,29.71,East,86,0.0,0.0,59,0.00,,,0.07,Wunderground v.1.15,2013-08-31 22:25:00,
2013-08-31 17:30:00,87.4,71.8,29.72,East,97,0.0,0.0,60,0.00,,,0.07,Wunderground v.1.15,2013-08-31 22:30:00,
2013-08-31 17:35:00,87.6,72.0,29.72,East,91,0.0,0.0,60,0.00,,,0.07,Wunderground v.1.15,2013-08-31 22:35:00,
2013-08-31 17:40:00,87.4,71.3,29.72,East,94,0.0,0.0,59,0.00,,,0.07,Wunderground v.1.15,2013-08-31 22:40:00,
2013-08-31 17:50:00,86.6,71.5,29.72,East,92,0.0,0.0,61,0.00,,,0.07,Wunderground v.1.15,2013-08-31 22:50:00,
2013-08-31 17:55:00,86.6,71.5,29.72,East,93,0.0,0.0,61,0.00,,,0.07,Wunderground v.1.15,2013-08-31 22:55:00,
2013-08-31 18:00:00,86.6,71.5,29.72,East,90,0.0,0.0,61,0.00,,,0.07,Wunderground v.1.15,2013-08-31 23:00:00,
2013-08-31 18:05:00,87.0,71.4,29.72,North,10,0.0,0.0,60,0.00,,,0.07,Wunderground v.1.15,2013-08-31 23:05:00,
2013-08-31 18:10:00,87.2,71.1,29.72,NNE,19,0.0,0.0,59,0.00,,,0.07,Wunderground v.1.15,2013-08-31 23:10:00,
2013-08-31 18:20:00,86.4,71.4,29.71,ENE,61,0.0,0.0,61,0.00,,,0.07,Wunderground v.1.15,2013-08-31 23:20:00,
2013-08-31 18:25:00,86.1,71.1,29.71,ENE,61,0.0,0.0,61,0.00,,,0.07,Wunderground v.1.15,2013-08-31 23:25:00,
2013-08-31 18:30:00,86.0,71.5,29.71,ENE,61,0.0,0.0,62,0.00,,,0.07,Wunderground v.1.15,2013-08-31 23:30:00,
2013-08-31 18:35:00,85.7,71.2,29.71,ENE,61,0.0,0.0,62,0.00,,,0.07,Wunderground v.1.15,2013-08-31 23:35:00,
2013-08-31 18:40:00,85.2,70.7,29.71,East,89,0.0,0.0,62,0.00,,,0.07,Wunderground v.1.15,2013-08-31 23:40:00,
2013-08-31 18:45:00,84.9,71.4,29.70,East,89,0.0,0.0,64,0.00,,,0.07,Wunderground v.1.15,2013-08-31 23:45:00,
2013-08-31 18:50:00,84.7,71.6,29.70,East,101,0.0,0.0,65,0.00,,,0.07,Wunderground v.1.15,2013-08-31 23:50:00,
2013-08-31 19:00:00,84.2,71.6,29.70,East,101,0.0,0.0,66,0.00,,,0.07,Wunderground v.1.15,2013-09-01 00:00:00,
2013-08-31 19:05:00,84.0,71.4,29.70,East,93,0.0,0.0,66,0.00,,,0.07,Wunderground v.1.15,2013-09-01 00:05:00,
2013-08-31 19:10:00,83.8,71.7,29.70,East,94,0.0,0.0,67,0.00,,,0.07,Wunderground v.1.15,2013-09-01 00:10:00,
2013-08-31 19:20:00,83.5,71.8,29.70,East,94,0.0,0.0,68,0.00,,,0.07,Wunderground v.1.15,2013-09-01 00:20:00,
2013-08-31 19:25:00,83.3,72.1,29.70,East,95,0.0,0.0,69,0.00,,,0.07,Wunderground v.1.15,2013-09-01 00:25:00,
2013-08-31 19:30:00,82.9,72.1,29.70,East,101,0.0,0.0,70,0.00,,,0.07,Wunderground v.1.15,2013-09-01 00:30:00,
2013-08-31 19:35:00,82.6,72.2,29.70,East,101,0.0,0.0,71,0.00,,,0.07,Wunderground v.1.15,2013-09-01 00:35:00,
2013-08-31 19:40:00,82.2,72.3,29.70,East,101,0.0,0.0,72,0.00,,,0.07,Wunderground v.1.15,2013-09-01 00:40:00,
2013-08-31 19:45:00,81.9,72.4,29.71,East,100,0.0,0.0,73,0.00,,,0.07,Wunderground v.1.15,2013-09-01 00:45:00,
2013-08-31 19:55:00,81.3,72.2,29.71,East,99,0.0,0.0,74,0.00,,,0.07,Wunderground v.1.15,2013-09-01 00:55:00,
2013-08-31 20:00:00,81.0,72.3,29.71,East,99,0.0,0.0,75,0.00,,,0.07,Wunderground v.1.15,2013-09-01 01:00:00,
2013-08-31 20:05:00,80.7,72.4,29.72,East,99,0.0,0.0,76,0.00,,,0.07,Wunderground v.1.15,2013-09-01 01:05:00,
2013-08-31 20:15:00,80.1,72.2,29.72,East,101,0.0,0.0,77,0.00,,,0.07,Wunderground v.1.15,2013-09-01 01:15:00,
2013-08-31 20:20:00,79.8,72.3,29.72,East,101,0.0,0.0,78,0.00,,,0.07,Wunderground v.1.15,2013-09-01 01:20:00,
2013-08-31 20:25:00,79.6,72.1,29.73,East,101,0.0,0.0,78,0.00,,,0.07,Wunderground v.1.15,2013-09-01 01:25:00,
2013-08-31 20:30:00,79.3,72.2,29.73,East,101,0.0,0.0,79,0.00,,,0.07,Wunderground v.1.15,2013-09-01 01:30:00,
2013-08-31 20:35:00,79.1,72.0,29.73,East,101,0.0,0.0,79,0.00,,,0.07,Wunderground v.1.15,2013-09-01 01:35:00,
2013-08-31 20:40:00,78.9,72.2,29.74,East,101,0.0,0.0,80,0.00,,,0.07,Wunderground v.1.15,2013-09-01 01:40:00,
2013-08-31 20:50:00,78.4,72.1,29.74,East,101,0.0,0.0,81,0.00,,,0.07,Wunderground v.1.15,2013-09-01 01:50:00,
2013-08-31 20:55:00,78.2,71.9,29.74,East,100,0.0,0.0,81,0.00,,,0.07,Wunderground v.1.15,2013-09-01 01:55:00,
2013-08-31 21:00:00,78.2,71.9,29.75,East,99,0.0,0.0,81,0.00,,,0.07,Wunderground v.1.15,2013-09-01 02:00:00,
2013-08-31 21:05:00,78.0,71.7,29.75,East,100,0.0,0.0,81,0.00,,,0.07,Wunderground v.1.15,2013-09-01 02:05:00,
2013-08-31 21:10:00,77.8,71.5,29.75,East,100,0.0,0.0,81,0.00,,,0.07,Wunderground v.1.15,2013-09-01 02:10:00,
2013-08-31 21:15:00,77.6,71.3,29.75,East,100,0.0,0.0,81,0.00,,,0.07,Wunderground v.1.15,2013-09-01 02:15:00,
2013-08-31 21:25:00,77.2,71.3,29.75,East,97,0.0,0.0,82,0.00,,,0.07,Wunderground v.1.15,2013-09-01 02:25:00,
2013-08-31 21:30:00,77.0,71.4,29.75,East,97,0.0,0.0,83,0.00,,,0.07,Wunderground v.1.15,2013-09-01 02:30:00,
2013-08-31 21:35:00,76.8,71.2,29.75,East,96,0.0,0.0,83,0.00,,,0.07,Wunderground v.1.15,2013-09-01 02:35:00,
2013-08-31 21:45:00,76.4,71.2,29.75,East,97,0.0,0.0,84,0.00,,,0.07,Wunderground v.1.15,2013-09-01 02:45:00,
2013-08-31 21:50:00,76.1,71.3,29.75,East,97,0.0,0.0,85,0.00,,,0.07,Wunderground v.1.15,2013-09-01 02:50:00,
2013-08-31 21:55:00,76.0,71.2,29.75,East,97,0.0,0.0,85,0.00,,,0.07,Wunderground v.1.15,2013-09-01 02:55:00,
2013-08-31 22:00:00,75.8,71.0,29.75,East,96,0.0,0.0,85,0.00,,,0.07,Wunderground v.1.15,2013-09-01 03:00:00,
2013-08-31 22:05:00,75.6,70.8,29.75,East,98,0.0,0.0,85,0.00,,,0.07,Wunderground v.1.15,2013-09-01 03:05:00,
2013-08-31 22:10:00,75.4,70.9,29.75,East,101,0.0,0.0,86,0.00,,,0.07,Wunderground v.1.15,2013-09-01 03:10:00,
2013-08-31 22:15:00,75.3,70.8,29.75,East,96,0.0,0.0,86,0.00,,,0.07,Wunderground v.1.15,2013-09-01 03:15:00,
2013-08-31 22:20:00,75.2,70.7,29.75,East,98,0.0,0.0,86,0.00,,,0.07,Wunderground v.1.15,2013-09-01 03:20:00,
2013-08-31 22:25:00,75.1,70.6,29.75,ESE,104,0.0,0.0,86,0.00,,,0.07,Wunderground v.1.15,2013-09-01 03:25:00,
2013-08-31 22:35:00,74.8,70.7,29.74,East,92,0.0,0.0,87,0.00,,,0.07,Wunderground v.1.15,2013-09-01 03:35:00,
2013-08-31 22:45:00,74.6,70.5,29.75,East,99,0.0,0.0,87,0.00,,,0.07,Wunderground v.1.15,2013-09-01 03:45:00,
2013-08-31 22:50:00,74.5,70.4,29.75,East,100,0.0,0.0,87,0.00,,,0.07,Wunderground v.1.15,2013-09-01 03:50:00,
2013-08-31 22:55:00,74.4,70.3,29.75,ESE,105,0.0,0.0,87,0.00,,,0.07,Wunderground v.1.15,2013-09-01 03:55:00,
2013-08-31 23:00:00,74.3,70.2,29.75,ESE,105,0.0,0.0,87,0.00,,,0.07,Wunderground v.1.15,2013-09-01 04:00:00,
2013-08-31 23:05:00,74.3,70.2,29.75,ESE,105,0.0,0.0,87,0.00,,,0.07,Wunderground v.1.15,2013-09-01 04:05:00,
2013-08-31 23:10:00,74.2,70.1,29.75,ESE,105,0.0,0.0,87,0.00,,,0.07,Wunderground v.1.15,2013-09-01 04:10:00,
2013-08-31 23:15:00,74.1,70.0,29.75,ESE,103,0.0,0.0,87,0.00,,,0.07,Wunderground v.1.15,2013-09-01 04:15:00,
2013-08-31 23:20:00,73.9,70.1,29.75,ESE,103,0.0,0.0,88,0.00,,,0.07,Wunderground v.1.15,2013-09-01 04:20:00,
2013-08-31 23:25:00,73.8,70.0,29.75,ESE,102,0.0,0.0,88,0.00,,,0.07,Wunderground v.1.15,2013-09-01 04:25:00,
2013-08-31 23:30:00,73.7,69.9,29.75,East,101,0.0,0.0,88,0.00,,,0.07,Wunderground v.1.15,2013-09-01 04:30:00,
2013-08-31 23:35:00,73.6,69.8,29.75,East,101,0.0,0.0,88,0.00,,,0.07,Wunderground v.1.15,2013-09-01 04:35:00,
2013-08-31 23:40:00,73.5,69.7,29.74,East,101,0.0,0.0,88,0.00,,,0.07,Wunderground v.1.15,2013-09-01 04:40:00,
2013-08-31 23:50:00,73.4,69.6,29.74,East,101,0.0,0.0,88,0.00,,,0.07,Wunderground v.1.15,2013-09-01 04:50:00,
2013-08-31 23:55:00,73.2,69.4,29.74,East,97,0.0,0.0,88,0.00,,,0.07,Wunderground v.1.15,2013-09-01 04:55:00,